RH
93 93 93 93 93 93 93 93 93 93 92 91 90 89 87 86 84 82 80 79 79 78 78 78 76 75 74 74 74 74 75 77 79 80 81 82 83 83 82 80 79 77 75 74 72 72 71 70 70 70 71 72 73 75 76 77 77 78 78 77 79 85 90 92 92 92 92 91 91
92 93 93 92 93 93 93 93 93 93 92 92 91 90 90 88 86 85 83 82 81 80 79 78 77 76 75 75 76 76 77 77 78 79 79 80 82 83 83 82 80 79 78 77 76 75 74 73 72 72 72 72 74 76 77 78 79 80 80 79 79 81 85 88 90 91 91 91 91
93 93 93 93 93 93 93 92 93 93 92 92 91 92 92 91 90 89 88 87 86 84 83 82 81 80 79 78 78 77 76 75 75 75 76 77 79 81 82 82 82 81 80 79 78 77 76 75 74 74 74 74 75 76 77 77 78 79 79 79 78 79 80 81 82 83 83 84 85
93 93 93 93 93 93 93 93 92 93 93 93 93 93 93 93 93 92 92 91 90 89 88 87 85 83 82 80 80 78 76 73 73 72 73 74 76 79 80 80 81 81 81 80 80 78 77 77 76 75 75 76 76 76 76 76 77 78 78 77 77 77 77 77 78 78 79 79 79
94 94 93 93 93 93 93 93 93 93 92 93 93 93 93 93 92 92 92 92 91 91 90 89 87 85 84 82 81 79 78 76 74 73 72 72 73 75 78 80 81 82 82 82 82 80 79 78 77 77 76 77 77 76 76 76 76 76 76 76 76 76 76 75 75 76 76 77 77
92 92 92 92 92 91 91 91 92 92 92 92 91 91 91 90 90 90 89 89 88 88 88 88 87 87 86 84 83 82 81 80 79 78 77 75 74 74 75 77 79 80 81 82 82 81 81 80 78 77 77 77 77 77 76 77 77 77 76 76 76 76 76 75 75 75 75 76 76
89 89 88 89 89 89 89 89 89 90 90 90 89 89 89 89 89 88 88 88 88 88 88 88 89 89 88 88 86 85 83 82 81 80 79 79 78 77 76 76 76 77 78 79 80 80 80 80 79 79 78 78 78 79 79 79 79 80 79 78 78 78 78 77 76 75 76 76 76
90 90 90 90 90 90 89 89 90 91 91 91 90 90 90 91 90 90 90 90 89 89 89 90 91 91 91 91 89 87 84 82 81 80 80 80 80 80 81 80 80 79 79 78 78 78 78 78 79 79 79 79 79 79 79 80 80 80 80 80 80 81 81 79 77 77 76 76 76
91 91 91 91 91 90 90 90 90 90 91 91 91 91 91 92 92 92 91 91 91 91 91 92 92 92 92 92 91 89 87 85 84 84 83 84 84 85 86 86 86 85 84 82 80 79 78 78 78 78 78 78 79 79 79 79 80 80 80 80 82 83 84 83 80 79 78 78 78
87 88 88 89 88 88 88 88 89 89 89 88 88 88 89 91 93 93 93 93 93 93 93 93 93 93 93 93 93 93 92 91 90 89 89 88 88 89 89 90 90 89 87 86 84 82 81 80 80 80 79 79 79 79 80 81 83 85 86 88 90 90 89 88 85 84 84 84 84
84 85 85 85 85 85 85 86 87 88 88 88 88 87 88 89 91 92 93 93 93 93 92 92 92 92 93 93 93 94 94 94 93 93 93 92 91 91 91 90 90 89 89 88 86 85 84 84 84 84 84 84 84 85 86 88 90 91 92 92 92 93 92 92 91 91 90 90 90
83 84 84 84 84 84 84 84 85 86 86 88 88 88 88 88 89 90 91 92 92 92 92 92 91 91 92 93 93 93 93 94 94 94 93 93 92 91 91 90 90 89 89 88 87 87 87 88 89 90 91 90 91 91 91 92 92 93 92 93 92 92 92 92 92 92 91 90 90
82 83 83 84 84 83 83 83 83 83 84 84 85 86 87 87 87 88 89 90 91 92 93 92 91 91 91 92 92 93 93 93 94 93 92 91 89 89 89 89 89 88 88 88 88 88 89 89 91 92 93 93 92 91 90 90 90 90 90 91 92 92 92 92 92 91 91 90 90
83 82 82 83 83 83 83 83 82 82 82 82 82 83 84 85 85 86 88 89 90 92 93 93 93 93 93 92 92 92 93 93 94 93 91 88 86 86 86 87 87 87 88 88 88 89 89 90 91 91 92 92 91 90 89 87 87 87 88 89 90 90 91 91 91 91 91 90 90
84 83 82 81 82 82 83 83 82 81 81 80 81 81 82 83 84 85 86 88 89 90 91 92 93 92 92 92 91 91 92 93 93 91 89 87 86 86 85 86 86 86 87 88 88 88 89 89 90 90 91 91 90 89 88 87 86 86 86 87 88 88 88 87 87 87 87 87 88
85 84 83 82 81 81 82 82 81 81 80 80 80 81 82 83 84 84 85 87 88 88 89 90 90 90 90 90 90 90 91 92 92 91 89 87 85 84 84 84 84 85 86 87 88 88 88 89 89 90 90 90 90 89 89 88 87 87 86 86 86 85 85 84 83 83 83 84 84
79 80 80 80 80 79 79 79 79 80 80 80 80 81 82 83 84 85 85 86 86 86 86 86 87 88 88 89 89 89 89 89 90 90 89 87 85 84 83 83 83 84 85 86 87 88 88 89 89 90 90 90 89 89 89 89 88 87 86 85 85 84 83 82 81 81 81 81 81
70 71 71 72 73 74 75 75 76 77 78 79 79 81 82 84 85 86 87 87 88 88 88 88 87 88 88 89 89 89 88 87 87 87 88 88 87 85 84 83 83 84 84 85 86 86 87 88 88 89 89 89 89 89 89 89 89 88 87 86 85 84 83 82 82 81 81 81 81
68 67 66 67 67 68 68 69 70 72 73 75 76 77 79 81 83 85 87 89 90 90 90 90 89 89 88 88 88 89 89 88 87 86 86 87 87 86 85 84 84 84 83 84 84 85 86 86 87 87 87 87 87 88 88 88 88 88 88 87 86 85 84 83 83 82 82 82 82
69 68 68 68 67 67 67 67 67 67 68 69 70 71 72 74 77 81 84 87 88 88 88 89 88 88 87 87 87 88 90 91 89 88 87 87 88 88 87 86 86 85 85 84 84 84 84 84 84 85 85 85 86 87 87 88 88 88 88 88 87 86 86 85 85 85 85 84 85
68 69 69 70 70 70 69 69 69 68 68 68 68 69 69 70 71 74 77 82 85 86 87 88 89 89 89 88 87 88 89 91 91 90 90 89 89 89 88 88 88 88 87 86 85 84 83 83 83 83 84 84 85 87 88 89 89 89 89 89 89 88 88 88 87 87 88 88 88
70 71 71 71 72 72 73 73 74 73 73 72 72 72 72 72 72 72 74 77 80 84 86 88 89 90 90 90 89 88 88 88 89 90 90 90 91 91 90 90 90 90 89 89 88 86 85 83 83 83 83 83 85 86 87 87 88 88 88 89 89 89 89 89 89 89 90 90 90
75 75 74 74 74 74 74 75 75 76 76 76 76 76 76 75 74 75 75 77 79 80 82 84 85 87 88 89 89 88 87 87 87 87 87 88 89 90 90 90 90 90 89 90 89 88 87 86 85 85 84 84 84 84 85 85 85 86 86 86 87 87 88 88 88 89 90 91 90
75 75 75 75 75 75 75 75 75 75 76 76 77 77 77 77 77 77 77 78 79 80 81 81 81 82 83 84 85 85 85 85 84 84 84 84 85 85 86 86 86 86 86 87 88 89 88 88 88 87 87 87 86 85 85 84 84 83 83 83 83 84 84 84 84 85 86 87 87
71 72 72 73 73 74 74 74 74 74 75 75 75 75 75 75 75 75 75 76 77 78 78 79 79 78 78 78 78 78 79 79 80 80 80 81 81 81 81 80 80 80 81 81 82 83 84 85 86 87 87 86 85 84 84 84 83 83 82 82 82 82 82 81 81 81 81 81 82
64 66 67 68 69 69 70 70 70 70 71 71 71 71 71 72 72 72 72 72 73 74 74 74 74 74 73 72 72 71 71 71 72 73 74 74 75 75 76 75 75 75 75 76 77 77 79 80 81 81 82 81 81 81 81 81 82 82 82 81 81 81 81 81 81 80 80 79 79
58 59 60 61 63 64 64 65 65 65 65 65 65 64 64 63 63 63 64 66 67 68 69 70 70 70 69 68 67 66 64 64 63 63 63 64 65 66 67 68 68 69 69 70 71 73 74 75 76 76 76 76 76 76 77 78 80 81 81 80 79 79 79 80 80 81 80 79 79
54 55 55 56 57 58 59 59 59 60 60 59 58 56 55 53 52 52 53 54 56 57 59 61 62 63 63 63 61 60 59 57 56 55 54 54 55 56 57 58 59 61 62 64 65 67 69 70 71 72 72 73 73 73 73 73 74 76 77 78 77 77 78 79 80 81 81 82 82
48 49 50 51 52 53 54 55 55 55 54 53 52 50 48 46 45 44 44 44 45 47 48 50 52 53 55 55 55 54 53 52 51 50 49 48 49 49 50 51 52 53 55 56 59 61 63 65 67 68 68 69 70 70 69 69 69 70 72 74 74 75 76 78 82 84 85 86 86
40 41 43 44 45 46 48 49 50 50 50 49 48 47 45 43 41 40 39 39 39 39 40 42 44 46 47 48 48 47 47 47 47 47 45 44 44 44 45 46 47 48 49 51 53 54 57 59 61 63 64 65 66 67 67 67 66 66 67 69 70 71 73 76 80 85 88 89 88
33 34 35 36 37 38 40 41 43 44 44 45 45 44 43 42 41 40 39 38 37 37 37 38 39 40 42 43 43 43 43 43 44 43 43 42 41 40 40 41 42 43 45 46 48 50 52 54 56 58 60 62 63 64 64 65 65 65 64 64 65 66 69 72 77 81 84 87 88
30 30 31 31 32 32 33 34 35 37 38 39 40 40 41 41 41 41 40 40 39 39 38 38 38 38 38 39 40 40 40 41 41 41 41 40 39 39 38 38 39 41 42 44 46 47 49 51 53 55 57 58 59 60 61 63 64 64 64 63 63 64 66 69 74 78 82 84 86
29 29 29 30 30 30 30 30 31 32 32 33 34 35 36 37 38 39 40 40 40 40 39 39 38 38 38 38 38 39 39 40 40 40 40 40 40 39 39 38 39 40 41 43 44 45 47 49 51 52 54 55 57 57 58 59 60 62 63 63 63 63 64 66 71 76 80 83 85
24 25 25 26 27 27 28 28 29 29 29 30 31 32 33 33 34 36 37 38 39 40 40 40 40 39 38 38 38 38 38 39 40 41 41 42 42 42 41 41 42 43 44 44 45 46 47 49 50 52 53 55 56 57 57 58 59 60 61 62 63 63 64 66 69 73 77 81 84
17 18 19 19 20 21 22 23 24 25 26 27 27 28 29 30 31 32 33 34 36 37 38 39 39 39 39 38 37 37 37 38 39 40 41 42 43 43 44 44 45 47 48 48 49 49 50 51 53 54 55 56 57 58 59 60 60 61 61 62 63 63 65 66 68 71 74 79 82
13 14 14 14 15 15 16 17 18 19 21 22 23 24 25 26 27 28 29 30 32 33 34 35 36 37 37 37 37 36 36 36 36 37 39 40 41 42 43 44 46 48 50 51 52 54 55 56 57 58 59 59 59 59 60 62 63 63 64 63 64 64 65 66 67 69 72 75 80
12 12 12 12 12 12 13 13 14 15 16 17 18 19 20 21 23 24 26 27 28 29 30 32 34 35 36 36 36 35 35 35 35 35 36 37 39 40 41 42 44 46 49 51 53 54 56 58 60 61 62 62 62 61 62 63 64 65 66 66 66 66 66 66 67 68 70 72 76
11 11 11 11 11 11 11 11 12 12 13 13 14 15 16 17 18 20 21 23 24 26 27 28 30 32 33 35 35 35 34 34 34 33 33 34 36 37 39 40 41 43 46 49 51 53 54 57 59 61 63 65 65 64 64 64 65 66 68 69 69 69 68 68 68 68 69 70 73
12 12 12 12 12 12 12 12 12 12 12 12 12 13 14 14 15 16 17 18 20 21 23 24 26 27 29 32 33 34 34 34 34 33 33 33 34 35 36 38 39 41 43 46 49 50 52 54 56 59 62 64 65 66 66 66 66 67 68 69 70 70 70 70 70 70 70 70 71
14 14 13 13 13 13 13 13 13 13 14 14 13 13 13 13 13 14 14 15 15 16 18 19 20 22 24 26 29 31 32 33 34 34 34 33 34 34 35 36 37 39 41 44 47 49 50 52 53 55 58 61 63 65 66 67 67 67 67 68 69 70 70 70 71 71 71 71 70
15 15 15 15 15 15 15 15 15 15 15 15 15 15 14 14 14 14 14 14 14 14 14 15 16 17 18 20 23 25 27 30 32 33 34 34 34 34 34 35 36 37 40 42 45 47 49 51 51 52 54 56 59 61 64 65 66 67 67 68 69 69 69 69 70 70 71 71 71